Regional Weather Roundup
Issued by NWS

Home | Current Version | Previous Version | Graphics & Text | Print | Product List | Glossary On
Versions: 1 2 3 4 5 6 7 8 9 10 11 12 13 14 15 16 17 18 19 20 21 22 23 24 25 26 27 28 29 30 31 32 33 34 35 36 37 38 39 40 41 42 43 44 45 46 47 48 49 50
401
ASUS43 KLSX 221507
RWRMO

WEATHER SUMMARY FOR MISSOURI
NATIONAL WEATHER SERVICE SPRINGFIELD MO
1000 AM CDT FRI MAY 22 2015

NOTE: "FAIR" INDICATES FEW OR NO CLOUDS BELOW 12,000 FEET WITH NO
       SIGNIFICANT WEATHER AND/OR OBSTRUCTIONS TO VISIBILITY.
       CURRENT SKY AND/OR WEATHER CONDITIONS ARE NOT AVAILABLE FOR
       CHILLICOTHE AND FARMINGTON.

MOZ001>031-035>038-043-044-053-054-221600-
...NORTHERN AND WESTERN MISSOURI...

CITY           SKY/WX    TMP DP  RH WIND       PRES   REMARKS
KANSAS CTY INT CLOUDY    57  49  74 SW10      30.28R
KANSAS C DTWN  CLOUDY    61  49  64 SW6       30.28R
LEE`S SUMMIT   CLOUDY    59  48  67 SW12      30.29R
ST JOSEPH      CLOUDY    58  50  75 S3        30.26S
CHILLICOTHE      N/A     64  53  67 SW3       30.27R
KIRKSVILLE     MOSUNNY   67  49  52 N6        30.24R

$$
MOZ066>068-077>081-088>096-101>105-221600-
...SOUTHWEST MISSOURI...

CITY           SKY/WX    TMP DP  RH WIND       PRES   REMARKS
SPRINGFIELD    PTSUNNY   60  46  59 S10       30.31R
JOPLIN         CLOUDY    61  49  64 S9        30.30S

$$
MOZ032>034-039>042-045>050-055>058-069>072-221600-
...CENTRAL MISSOURI...

CITY           SKY/WX    TMP DP  RH WIND       PRES   REMARKS
COLUMBIA       MOSUNNY   67  49  52 NW7       30.26R
JEFFERSON CITY MOSUNNY   65  48  54 NW5       30.27R
ROLLA          SUNNY     63  48  58 NW3       30.27R
SEDALIA        CLOUDY    66  50  56 CALM      30.28R
WHITEMAN AFB   CLOUDY    62  50  63 SW8       30.28R
WARRENSBURG    CLOUDY    61  50  67 SW8       30.29R
OSAGE BEACH    MOSUNNY   63  48  59 S6        30.30R

$$
MOZ051-052-059>065-221600-
...EAST CENTRAL MISSOURI...

CITY           SKY/WX    TMP DP  RH WIND       PRES   REMARKS
ST LOUIS INTL  MOSUNNY   67  49  52 W7        30.25S
SPIRIT OF STL  MOSUNNY   64  49  57 W6        30.25R
ST CHARLES     SUNNY     64  47  53 W7        30.23S

$$
MOZ072>076-082>087-097>100-106>115-221600-
...SOUTH CENTRAL AND SOUTHEAST MISSOURI...

CITY           SKY/WX    TMP DP  RH WIND       PRES   REMARKS
CAPE GIRARDEAU SUNNY     61  51  70 W3        30.31S
FARMINGTON     SUNNY     63  48  59 S5        30.32S
POPLAR BLUFF   SUNNY     62  48  60 VRB3      30.30F
WEST PLAINS    SUNNY     59  47  64 CALM      30.32R

$$



USA.gov is the U.S. government's official web portal to all federal, state and local government web resources and services.